SL-19 DEB

Satellite information

Favourite Embed

Satellite Type and Status

DEBRISIN ORBIT

Key statistics

Satellite SL-19 DEB at a glance.

Uptime

5781

Days in orbit

Revolutions

≈ 14.6

Per day

Orbit

SSO

Sun Synchronous Orbit

Inclination

98.2

Latest

Satellite identification and parameters

Extended collection of information and parameters for SL-19 DEB.

Object identification

Identified? True

Debris? True

Object name: SL-19 DEB

International designator: 2009-059C

Object number (NORAD): 36038

Object ID (CCSDS): 36038

Country: COMMONWEALTH OF INDEPENDENT STATES (CIS)

Current information (Y/N): Y

RCS size: MEDIUM

Orbital parameters

Period: 98.654 minutes

Inclination: 98.1786 deg

SMA: 7072.43 km

Apoapsis: 701.756 km

Periapsis: 686.834 km

RAAN: 64.2911 deg

Eccentricy: 0.00105496

Argument of periapsis: 40.4469 deg

Mean anomaly: 330.3961 deg

Mean motion: 14.59653603 rev/day

Mean motion (dot): 0.0000107 rev/day2

B* drag term: 0.00023425169 1/REarth

Two-line elements (TLE)

Creation date: Aug. 30, 2025, 3:38 a.m.

Reference frame: TEME

Reference center: EARTH

Epoch: Aug. 29, 2025, 6:43 p.m. UTC

TLE line 0: 0 SL-19 DEB

TLE line 1: 1 36038U 09059C 25241.78023479 .00001070 00000-0 23425-3 0 9994

TLE line 2: 2 36038 98.1786 64.2911 0010550 40.4469 330.3961 14.59653603840540

Live tracking on map

Real-time ground track for satellite SL-19 DEB.

In-orbit conjunctions

A list of the most updated potential collisions computed for object SL-19 DEB.

Target Orbit TCA Probability of collision Miss distance Type
OV2-1 LEO 2024-10-31 19:18:17 0.000118031 971.0 (m) PAYLOAD

Associated space launch

SMOS (Soil Moisture and Ocean Salinity) is a earth observation satellite operated by ESA. It is intented to provide new insights into Earth's water cycle and climate.

SL-19 DEB was lifted into orbit during the mission ‘Rokot / Briz-KM | SMOS’, on board a Rokot/Briz-KM space rocket.

The launch took place on Nov. 2, 2009, 1:50 a.m. from 133/3 (133L).

For more information about the launch, click the button.

Launch to space Rokot / Briz-KM | SMOS
Rokot / Briz-KM | SMOS

Agency: N/A

Status: Launch Successful

Launch date: Nov. 2, 2009, 1:50 a.m. UTC

Rocket: Rokot/Briz-KM

Launch pad: 133/3 (133L)

Location: Plesetsk Cosmodrome, Russian Federation

...

Latest news about this satellite

News about space launch
SMOS adds long-term view on carbon stored in forests

Data from ESA’s Soil Moisture and Ocean Salinity (SMOS) mission can be used to estimate how much carbon is stored in forests – and a study has improved our understanding of how reliable this proxy is and how long-term datasets from SMOS can help us to mon...

News about space launch
Proba-2’s glimpse of home

Proba-2’s glimpse of home


Newsletter sign-up

Weekly statistics, charts and insights to help you stay on top of the space industry.